Regional Weather Roundup
Issued by NWS

Home | Current Version | Previous Version | Text Only | Print | Product List | Glossary On
Versions: 1 2 3 4 5 6 7 8 9 10 11 12 13 14 15 16 17 18 19 20 21 22 23 24 25 26 27 28 29 30 31 32 33 34 35 36 37 38 39 40 41 42 43 44 45 46 47 48 49 50
563
ASUS44 KEWX 030811
RWRTX
SOUTH TEXAS REGIONAL WEATHER ROUNDUP
NATIONAL WEATHER SERVICE AUSTIN/SAN ANTONIO TX
300 AM CDT TUE MAY 03 2016

NOTE: "FAIR" INDICATED FEW OR NO CLOUDS BELOW 12,000 FEET WITH NO
SIGNIFICANT WEATHER AND/OR OBSTRUCTIONS TO VISIBILITY.

* - THESE STATIONS ARE NOT NWS OR FAA STATIONS...AND ARE NOT SUBJECT
    TO NWS AND FAA QUALITY CONTROL.

TXZ171-172-183>190-030900-
TEXAS HILL COUNTRY AND EDWARDS PLATEAU

CITY           SKY/WX    TMP DP  RH WIND       PRES   REMARKS
JUNCTION       CLEAR     45  42  89 W3        30.12S
*LLANO         CLEAR     46  46 100 CALM      30.13F
BURNET         CLEAR     50  47  89 N6        30.11F WCI  48
*HORSESHOE BAY CLEAR     48  47  97 CALM      30.10F
*KERRVILLE     CLEAR     49  47  95 CALM      30.10S
*FREDERICKSBRG CLEAR     46  45  96 NW3       30.09F
*ROCKSPRINGS   CLEAR     48  46  93 CALM      30.12S
*BOERNE STAGE  CLOUDY    54  46  76 N7        30.09F
*CASTROVILLE   CLOUDY    58  49  71 CALM      30.09F
HONDO          PTCLDY    56  50  80 N5        30.10F
*UVALDE        PTCLDY    54  51  90 CALM      30.10R
DEL RIO        CLEAR     55  52  89 N3        30.10S
LAUGHLIN AFB   NOT AVBL
CARRIZO SPRGS  CLOUDY    61  54  77 CALM      30.08F HAZE
*EAGLE PASS    CLOUDY    61  54  77 CALM      30.09S
$$

TXZ173-191>194-202-209-217>225-228-030900-
CENTRAL AND SOUTH CENTRAL TEXAS

CITY           SKY/WX    TMP DP  RH WIND       PRES   REMARKS
GEORGETOWN       N/A    N/A N/A N/A MISG        N/A
AUSTIN/BERGSTM MOCLDY    56  52  86 N6        30.07F
AUSTIN/MABRY   CLOUDY    56  51  84 N3        30.09F
*AUSTIN/EXEC   CLOUDY    55  50  82 N7        30.08F
*LAGO VISTA    PTCLDY    55  49  82 N5        30.09F
SAN MARCOS     CLEAR     54  52  94 N5        30.08F
NEW BRAUNFELS  PTCLDY    56  50  80 N7        30.06F
RANDOLPH AFB   NOT AVBL
PT SAN ANTONIO NOT AVBL
SAN ANTONIO    MOCLDY    57  49  74 N5        30.07F
STINSON FIELD  CLOUDY    62  49  62 N7        30.05F
*PLEASANTON    CLOUDY    60  51  70 N3        30.08F
*LA GRANGE       N/A     58  54  86 CALM      30.05S
*GIDDINGS      MOCLDY    56  51  84 N3        30.10F
*GONZALES      MOCLDY    56  54  93 N5        30.06F
$$

TXZ163>164-176>182-195>201-210>213-226-227-235-030900-
SOUTHEAST TEXAS

CITY           SKY/WX    TMP DP  RH WIND       PRES   REMARKS
COLLEGE STN    CLOUDY    57  52  83 N8        30.06F
*BRYAN         MOCLDY    55  55 100 N3        30.08F
*CALDWELL      CLOUDY    55  52  88 N5        30.10F
*CROCKETT      PTCLDY    54  50  87 CALM      30.09S
*BRENHAM       MOCLDY    57  54  89 CALM      30.07F
HUNTSVILLE     MOCLDY    57  51  80 N3        30.06F
CONROE         PTCLDY    58  54  86 N6        30.05S
HOUSTON BUSH   PTCLDY    59  54  83 N12       30.04S
HOUSTON HOBBY  MOCLDY    64  56  75 N17       30.02S
*HOUSTON SW AP CLOUDY    63  55  75 N8        30.03S
PEARLAND       CLOUDY    66  57  72 N7        30.03S
HOUSTON HOOKS  PTCLDY    60  54  80 N9        30.04F
ELLINGTON FLD  MOCLDY    64  57  77 N10       30.03S
SUGAR LAND     CLOUDY    61  54  77 N10       30.03S
*HOUSTON EXEC  PTCLDY    57  55  94 N7        30.06S
*CLEVELAND MUN CLOUDY    60  56  87 N5        30.04F
*WHARTON       CLOUDY    61  56  83 N8        30.05S
*COLUMBUS      FAIR      58  54  85 N5        30.05S
*EAGLE LAKE    PTSUNNY   59  55  86 N7        30.05S
$$

TXZ214>216-236>238-030900-
THE UPPER TEXAS COAST

CITY           SKY/WX    TMP DP  RH WIND       PRES   REMARKS
*ORANGE        CLOUDY    64  60  88 N8        30.01S FOG
PORT ARTHUR    CLOUDY    64  61  90 N16       29.98F
GALVESTON      CLOUDY    67  62  84 N17G24    30.00F
ANGLETON       CLOUDY    65  57  75 N10       30.01S
*BAY CITY      CLOUDY    64  57  79 N9        30.02F
PALACIOS       NOT AVBL
$$

TXZ229>234-239>247-030900-
TEXAS COASTAL BEND AND RIO GRANDE PLAINS

CITY           SKY/WX    TMP DP  RH WIND       PRES   REMARKS
VICTORIA       CLOUDY    61  53  75 N8        30.05F
*BEEVILLE      CLOUDY    63  55  75 N8        30.06F
ROCKPORT       CLOUDY    65  53  65 N13G25    30.02F
*PORT ARANSAS  CLOUDY    65  58  76 N16       30.02S
*PORT LAVACA   CLOUDY    63  55  77 N9        30.04F
*INGLESIDE     CLOUDY    63  53  70 N14       30.03S
CORPUS CHRISTI CLOUDY    65  53  65 N13       30.04F
CORPUS NAS     CLOUDY    66  57  72 N16       30.03S
*ROBSTOWN      CLOUDY    65  54  67 N10       30.05F
ALICE          CLOUDY    64  51  62 N10       30.05F
KINGSVILLE NAS CLOUDY    65  55  70 N9        30.04F
COTULLA        CLOUDY    64  50  60 NE5       30.09F
*FAITH RANCH     N/A    N/A N/A N/A MISG        N/A
LAREDO         CLOUDY    64  51  62 N9        30.08F
$$

TXZ248>255-030900-
DEEP SOUTH TEXAS

CITY           SKY/WX    TMP DP  RH WIND       PRES   REMARKS
BROWNSVILLE    CLOUDY    68  58  70 N10       30.00F
PORT ISABEL    CLOUDY    69  58  67 NW12      29.99F
*SOUTH PADRE     N/A     70  63  78 N13G18    29.99F
HARLINGEN      CLOUDY    68  55  63 N12       30.01F
*HEBBRONVILLE  CLOUDY    64  50  61 N6        30.07F
MCALLEN        CLOUDY    70  54  56 N13       30.03F
*WESLACO       CLOUDY    68  55  63 N6        30.01F
FALFURRIAS     CLOUDY    66  51  57 N10       30.04F
EDINBURG       CLOUDY    69  54  60 N7        30.04F
*ZAPATA        CLOUDY    66  50  56 N6        30.06F
$$

TXZ213>215-236>238-242>244-246-247-251-254-255-030900-
CMAN STATIONS

STATION/POSITION TIME  TEMP    WIND        PRES    WAVE
                       AIR SEA DIR/SP/G            HT/PER
                 (UTC) (F)     (DEG/KT/KT) (MB)    (FT/S)
SABINE PASS      0700   68 77   10/ 17/ 20 1016.7
SEA RIM ST PARK  0800   66      10/ 14/ 17 1015.7
NORTH JETTY/GLS  0700   69 76                N/A
EAGLE POINT      0700   66 70   20/  9/ 14 1016.1
MORGANS POINT    0700   65 67  350/  9/ 14 1016.4
MISSION/ARANSAS  0700   65                 1018.0
PORT O`CONNOR    0700          350/ 19/ 23   N/A
PORT ARANSAS     0800   65 76  360/ 13/ 16 1016.9
MALAQUITE BEACH  0700   67 77  340/ 11/ 14 1017.1
BAFFIN BAY       0700   66 77  340/ 13/ 14 1017.3
PORT ISABEL      0700   70 78              1016.3
$$

GMZ080-GMZ150>470-030900-
OFFSHORE BUOY REPORTS

STATION/POSITION TIME  TEMP    WIND        PRES    WAVE
                       AIR SEA DIR/SP/G            HT/PER
                 (UTC) (F)     (DEG/KT/KT) (MB)    (FT/S)
20 E GALVESTON   0750   69 74  360/ 17/ 23 1014.1    4/ 4
90 E PT ARANSAS  0750   69 76  360/ 17/ 21 1014.4    5/ 7
35 NE PT MANSFLD 0750   70 74   10/ 16/ 19 1015.2    5/ 8
200 E PT ISABEL  0750                        N/A     5/ 8
$$




USA.gov is the U.S. government's official web portal to all federal, state and local government web resources and services.